This is the latest recevied weather packets stored in our database for station/object K4DFD-13. If no packets are shown the sender has not sent any weather packets the latest 10 day(s).
| Time | Temp. | Humidity | Pressure | Rain* | Wind** | Luminosity | Snow |
|---|---|---|---|---|---|---|---|
| 1777469304 | 13.89° C | 99% | 1014.1 hPa | 10.92 mm | - | - | - |
| 1777469004 | 13.33° C | 99% | 1014.1 hPa | 11.18 mm | - | - | - |
| 1777468704 | 13.33° C | 99% | 1014.1 hPa | 11.18 mm | - | - | - |
| 1777468404 | 13.33° C | 99% | 1014.1 hPa | 11.18 mm | - | - | - |
| 1777468103 | 13.33° C | 99% | 1014.3 hPa | 9.4 mm | - | - | - |
| 1777467803 | 13.33° C | 99% | 1014.5 hPa | 9.4 mm | - | - | - |
| 1777467502 | 13.33° C | 99% | 1014.5 hPa | 8.13 mm | - | - | - |
| 1777467202 | 13.33° C | 99% | 1014.6 hPa | 6.86 mm | - | - | - |
| 1777466902 | 13.33° C | 99% | 1014.8 hPa | 6.86 mm | - | - | - |
| 1777466601 | 13.33° C | 99% | 1014.6 hPa | 5.33 mm | - | - | - |
| 1777466301 | 13.33° C | 99% | 1014.6 hPa | 4.32 mm | - | - | - |
| 1777466000 | 13.33° C | 99% | 1014.5 hPa | 4.32 mm | - | - | - |
| 1777465700 | 12.78° C | 99% | 1014.5 hPa | 2.29 mm | - | - | - |
| 1777465400 | 12.78° C | 99% | 1014.8 hPa | 0.25 mm | - | - | - |
| 1777465100 | 12.78° C | 99% | 1014.6 hPa | 0.25 mm | - | - | - |
| 1777464799 | 12.78° C | 99% | 1014.5 hPa | 0 mm | - | - | - |
| 1777464499 | 12.78° C | 99% | 1014.5 hPa | 0 mm | - | - | - |
| 1777464199 | 12.78° C | 99% | 1014 hPa | 0 mm | - | - | - |
| 1777463898 | 12.78° C | 99% | 1014 hPa | 0 mm | - | - | - |
| 1777463598 | 12.78° C | 99% | 1014.1 hPa | 0 mm | - | - | - |
| 1777463298 | 12.78° C | 99% | 1014 hPa | 0 mm | - | - | - |
| 1777462997 | 12.78° C | 99% | 1014.3 hPa | 0 mm | - | - | - |
| 1777462697 | 12.78° C | 99% | 1014.4 hPa | 0 mm | - | - | - |
| 1777462397 | 12.78° C | 99% | 1014.5 hPa | 0 mm | - | - | - |
| 1777462096 | 12.78° C | 99% | 1014.4 hPa | 0 mm | - | - | - |
* Rain latest hour (hover to see other rain measurements)
** Current wind speed in m/s (hover to see current wind gust speed)